Back to catalog

STARLINK-5118

AliveCommunicationsVLEO
NORAD 53991·PAYLOAD·🇺🇸 United States

Launched Oct 5, 2022 from Vandenberg Space Force Base

Loading…

Next Passes (next 24 hours)

TLE

FreshSource: CelesTrak SupGP

Epoch: Sep 14, 2026, 13:05 UTC

1 53991C 22125AD  26257.54562500 -.00014673  00000+0 -41969-3 0  2579
2 53991  53.1610  65.7211 0001184  92.0206 319.1789 15.35414842    16

Track STARLINK-5118 in real time with AllMySat

Download on the App Store